Find Starlink 37540

NORAD ID: 68914 Int'l Des: 2026-097 Owner: SPXS Country: US Constellation: starlink operational
LEOCIRCULARRETROGRADE

当前视图

正在加载3D地球...

About Starlink 37540

Starlink 37540 (NORAD 68914) is a starlink constellation satellite (v2 mini) launched Apr 30, 2026 by SPXS of US. It operates in LEO, CIRCULAR, RETROGRADE orbit with a mass of 575.00 kg.

关于 Starlink 37540

正在加载描述...

即将过境

Passes for default location (London). Set your location on the main map for personalized predictions.

高度历史

Loading altitude history...

两行轨道根数

1 68914U 26097V 26170.51581480 .00013829 00000-0 42985-3 0 9994
2 68914 97.2859 6.0036 0001781 92.5819 267.5628 15.33448259 7845
Epoch: Jun 19, 2026 • Age: 11 hours

当前状态

高度 485.1 km
速度 7.62 km/s
星下点 -48.11°S, 119.44°E
发射日期 Apr 30, 2026
运行时间 0.1 years
类型 internet

技术详情

分类 Payload
质量 575.00 kg
干质量 530.00 kg
总质量 575.00 kg
长度 0.30 m
直径 4.10 m
跨度 29.00 m
形状 Box + pan
制造商 SPXS
平台类型 Starlink V2MO
阶段状态 In Orbit
所有者/国家 SPXS/US

Most Searched